When you browse on this site, cookies collect data to enhance your experience and personalize the content and advertising you see.
Visit our Privacy Policy to learn more. By continuing to use the site, you agree to this use of cookies and data.
  • In Romania
  • List of Countries
  • For 7 days
  • Water Temperature
  • Satellite Maps
  • Weather Map
  • Weather Widgets
  • user-avatar
    Login

    Hourly Weather Penonomé

    Today, 20 May, Monday

    Time Temperature Precipitation Wind Pressure Humidity
    00:00 +25°C° 0.2 mm 0 mps 749 mmHg 88%
    01:00 +27°C° 0.2 mm 1 mps 749 mmHg 87%
    02:00 +25°C° 0 mm 0 mps 749 mmHg 87%
    03:00 +25°C° 0 mm 0 mps 749 mmHg 87%
    04:00 +25°C° 0 mm 0 mps 748 mmHg 88%
    05:00 +25°C° 0 mm 0 mps 749 mmHg 87%
    06:00 +27°C° 0 mm 1 mps 749 mmHg 86%
    07:00 +27°C° 0 mm 1 mps 749 mmHg 85%
    08:00 +29°C° 0 mm 1 mps 749 mmHg 78%
    09:00 +30°C° 0 mm 1 mps 750 mmHg 72%
    10:00 +32°C° 0 mm 1 mps 750 mmHg 66%
    11:00 +32°C° 0.6 mm 1 mps 750 mmHg 65%
    12:00 +32°C° 0.6 mm 2 mps 750 mmHg 65%
    13:00 +32°C° 0.6 mm 2 mps 749 mmHg 64%
    14:00 +32°C° 0.7 mm 2 mps 749 mmHg 65%
    15:00 +32°C° 0.7 mm 2 mps 748 mmHg 66%
    16:00 +32°C° 0.7 mm 2 mps 748 mmHg 67%
    17:00 +30°C° 0.2 mm 2 mps 748 mmHg 71%
    18:00 +29°C° 0.2 mm 2 mps 748 mmHg 76%
    19:00 +28°C° 0.2 mm 2 mps 748 mmHg 81%
    20:00 +28°C° 0.1 mm 1 mps 749 mmHg 82%
    21:00 +28°C° 0.1 mm 1 mps 749 mmHg 83%
    22:00 +28°C° 0.1 mm 1 mps 750 mmHg 84%
    23:00 +28°C° 0.1 mm 1 mps 750 mmHg 85%

    Tomorrow, 21 May, Tuesday

    Time Temperature Precipitation Wind Pressure Humidity
    00:00 +28°C° 0.1 mm 1 mps 749 mmHg 85%
    01:00 +25°C° 0.1 mm 0 mps 749 mmHg 86%
    02:00 +25°C° 0.1 mm 0 mps 749 mmHg 86%
    03:00 +25°C° 0.1 mm 0 mps 748 mmHg 87%
    04:00 +25°C° 0.1 mm 0 mps 748 mmHg 87%
    05:00 +25°C° 0 mm 0 mps 748 mmHg 86%
    06:00 +25°C° 0 mm 0 mps 748 mmHg 86%
    07:00 +25°C° 0 mm 0 mps 749 mmHg 85%
    08:00 +27°C° 0.1 mm 0 mps 749 mmHg 78%
    09:00 +30°C° 0.1 mm 1 mps 749 mmHg 72%
    10:00 +31°C° 0.1 mm 1 mps 750 mmHg 66%
    11:00 +32°C° 0.5 mm 2 mps 749 mmHg 65%
    12:00 +32°C° 0.5 mm 2 mps 749 mmHg 63%
    13:00 +34°C° 0.5 mm 3 mps 748 mmHg 62%
    14:00 +34°C° 0.7 mm 3 mps 748 mmHg 64%
    15:00 +33°C° 0.7 mm 3 mps 747 mmHg 66%
    16:00 +33°C° 0.7 mm 3 mps 747 mmHg 67%
    17:00 +31°C° 0.4 mm 3 mps 747 mmHg 72%
    18:00 +30°C° 0.4 mm 2 mps 747 mmHg 77%
    19:00 +29°C° 0.4 mm 2 mps 747 mmHg 81%
    20:00 +28°C° 0.2 mm 1 mps 748 mmHg 82%
    21:00 +28°C° 0.2 mm 1 mps 749 mmHg 83%
    22:00 +28°C° 0.2 mm 1 mps 749 mmHg 85%
    23:00 +28°C° 0 mm 1 mps 749 mmHg 85%

    Day after tomorrow, 22 May, Wednesday

    Time Temperature Precipitation Wind Pressure Humidity
    00:00 +27°C° 0 mm 1 mps 749 mmHg 85%
    01:00 +27°C° 0 mm 1 mps 749 mmHg 86%
    02:00 +27°C° 0 mm 1 mps 749 mmHg 86%
    03:00 +27°C° 0 mm 1 mps 748 mmHg 87%
    04:00 +27°C° 0 mm 1 mps 748 mmHg 87%
    05:00 +27°C° 0 mm 1 mps 748 mmHg 87%
    06:00 +27°C° 0 mm 1 mps 748 mmHg 86%
    07:00 +27°C° 0 mm 1 mps 749 mmHg 85%
    08:00 +28°C° 0 mm 1 mps 749 mmHg 80%
    09:00 +29°C° 0 mm 1 mps 750 mmHg 75%
    10:00 +30°C° 0 mm 1 mps 750 mmHg 70%
    11:00 +32°C° 0.1 mm 1 mps 750 mmHg 65%
    12:00 +33°C° 0.1 mm 1 mps 749 mmHg 60%
    13:00 +34°C° 0.1 mm 1 mps 749 mmHg 55%
    14:00 +34°C° 1 mm 2 mps 748 mmHg 59%
    15:00 +34°C° 1 mm 2 mps 748 mmHg 63%
    16:00 +33°C° 1 mm 3 mps 747 mmHg 68%
    17:00 +31°C° 1.2 mm 2 mps 748 mmHg 73%
    18:00 +30°C° 1.2 mm 1 mps 748 mmHg 78%
    19:00 +29°C° 1.2 mm 1 mps 748 mmHg 83%
    20:00 +28°C° 0.4 mm 1 mps 749 mmHg 85%
    21:00 +28°C° 0.4 mm 1 mps 749 mmHg 86%
    22:00 +28°C° 0.4 mm 1 mps 750 mmHg 87%
    23:00 +28°C° 0.3 mm 1 mps 750 mmHg 87%

    23 May, Thursday

    Time Temperature Precipitation Wind Pressure Humidity
    00:00 +27°C° 0.3 mm 1 mps 749 mmHg 88%
    01:00 +27°C° 0.3 mm 1 mps 749 mmHg 88%
    02:00 +25°C° 0.1 mm 0 mps 749 mmHg 88%
    03:00 +25°C° 0.1 mm 0 mps 748 mmHg 87%
    04:00 +25°C° 0.1 mm 0 mps 748 mmHg 87%
    05:00 +25°C° 0 mm 0 mps 749 mmHg 85%
    06:00 +25°C° 0 mm 0 mps 749 mmHg 84%
    07:00 +26°C° 0 mm 0 mps 749 mmHg 83%
    08:00 +27°C° 0.1 mm 0 mps 750 mmHg 76%
    09:00 +30°C° 0.1 mm 1 mps 750 mmHg 70%
    10:00 +32°C° 0.1 mm 1 mps 751 mmHg 64%
    11:00 +32°C° 0.8 mm 2 mps 750 mmHg 65%
    12:00 +32°C° 0.8 mm 2 mps 750 mmHg 65%
    13:00 +32°C° 0.8 mm 2 mps 749 mmHg 65%
    14:00 +32°C° 1 mm 2 mps 749 mmHg 67%
    15:00 +31°C° 1 mm 2 mps 748 mmHg 70%
    16:00 +31°C° 1 mm 2 mps 747 mmHg 72%
    17:00 +30°C° 0.3 mm 2 mps 748 mmHg 75%
    18:00 +29°C° 0.3 mm 1 mps 748 mmHg 78%
    19:00 +28°C° 0.3 mm 1 mps 748 mmHg 81%
    20:00 +28°C° 0 mm 1 mps 749 mmHg 82%
    21:00 +26°C° 0 mm 0 mps 749 mmHg 83%
    22:00 +26°C° 0 mm 0 mps 750 mmHg 83%
    23:00 +26°C° 0.1 mm 0 mps 749 mmHg 83%

    24 May, Friday

    Time Temperature Precipitation Wind Pressure Humidity
    00:00 +26°C° 0.1 mm 0 mps 749 mmHg 83%
    01:00 +26°C° 0.1 mm 0 mps 749 mmHg 83%
    02:00 +25°C° 0.4 mm 0 mps 749 mmHg 84%
    03:00 +25°C° 0.4 mm 0 mps 748 mmHg 84%
    04:00 +27°C° 0.4 mm 1 mps 748 mmHg 84%
    05:00 +27°C° 0.4 mm 1 mps 748 mmHg 85%
    06:00 +27°C° 0.4 mm 1 mps 749 mmHg 85%
    07:00 +27°C° 0.4 mm 1 mps 749 mmHg 86%
    08:00 +28°C° 0 mm 1 mps 749 mmHg 80%
    09:00 +30°C° 0 mm 1 mps 750 mmHg 74%
    10:00 +31°C° 0 mm 1 mps 750 mmHg 68%
    11:00 +32°C° 0.4 mm 1 mps 750 mmHg 65%
    12:00 +33°C° 0.4 mm 1 mps 749 mmHg 62%
    13:00 +33°C° 0.4 mm 1 mps 749 mmHg 60%
    14:00 +32°C° 3 mm 1 mps 748 mmHg 65%
    15:00 +31°C° 3 mm 2 mps 748 mmHg 70%
    16:00 +30°C° 3 mm 2 mps 747 mmHg 75%
    17:00 +29°C° 2.1 mm 2 mps 748 mmHg 79%
    18:00 +29°C° 2.1 mm 2 mps 748 mmHg 83%
    19:00 +28°C° 2.1 mm 2 mps 748 mmHg 87%
    20:00 +27°C° 0.6 mm 2 mps 749 mmHg 88%
    21:00 +27°C° 0.6 mm 1 mps 749 mmHg 89%
    22:00 +27°C° 0.6 mm 1 mps 749 mmHg 90%
    23:00 +27°C° 0.5 mm 1 mps 749 mmHg 89%

    25 May, Saturday

    Time Temperature Precipitation Wind Pressure Humidity
    00:00 +27°C° 0.5 mm 1 mps 749 mmHg 89%
    01:00 +26°C° 0.5 mm 2 mps 749 mmHg 89%
    02:00 +26°C° 0 mm 1 mps 748 mmHg 88%
    03:00 +26°C° 0 mm 1 mps 748 mmHg 88%
    04:00 +26°C° 0 mm 1 mps 748 mmHg 88%
    05:00 +26°C° 0.1 mm 1 mps 748 mmHg 88%
    06:00 +27°C° 0.1 mm 1 mps 749 mmHg 88%
    07:00 +27°C° 0.1 mm 1 mps 749 mmHg 87%
    08:00 +28°C° 0 mm 1 mps 749 mmHg 81%
    09:00 +29°C° 0 mm 1 mps 750 mmHg 75%
    10:00 +30°C° 0 mm 1 mps 750 mmHg 69%
    11:00 +31°C° 0.4 mm 1 mps 749 mmHg 66%
    12:00 +32°C° 0.4 mm 2 mps 749 mmHg 63%
    13:00 +34°C° 0.4 mm 2 mps 748 mmHg 59%
    14:00 +32°C° 2.1 mm 2 mps 748 mmHg 63%
    15:00 +32°C° 2.1 mm 2 mps 748 mmHg 66%
    16:00 +31°C° 2.1 mm 2 mps 747 mmHg 69%
    17:00 +30°C° 1.4 mm 2 mps 748 mmHg 74%
    18:00 +29°C° 1.4 mm 2 mps 748 mmHg 79%
    19:00 +28°C° 1.4 mm 2 mps 748 mmHg 83%
    20:00 +28°C° 0.3 mm 2 mps 749 mmHg 84%
    21:00 +27°C° 0.3 mm 2 mps 749 mmHg 85%
    22:00 +27°C° 0.3 mm 2 mps 749 mmHg 86%
    23:00 +26°C° 0 mm 2 mps 749 mmHg 86%
    Show more